Temp
57 59 61 61 61 64 64 66 62 68 70 77 70 72 76 82 85 86 93 95 95 95 79 88 91 91 91 94 92 93 89 88 86 85 85 84 84 84 84 84 85 85 84 85
50 57 59 57 62 63 64 67 68 69 67 79 80 80 79 81 82 81 82 91 90 87 95 92 92 91 91 91 92 92 88 87 86 85 84 84 83 83 83 83 84 84 84 84
42 53 54 49 58 61 63 66 65 60 68 76 75 76 77 77 77 79 80 78 94 92 89 81 94 93 91 91 93 90 88 87 86 85 84 83 84 83 83 82 84 83 84 84
40 46 32 53 65 66 63 66 68 68 70 73 73 76 79 81 79 79 79 76 87 94 95 89 81 79 96 94 89 89 87 87 86 85 84 84 83 83 82 84 83 83 83 84
35 37 46 53 60 61 56 59 69 64 67 70 73 74 71 80 83 82 79 82 88 91 91 88 89 90 94 94 91 90 88 87 86 87 84 84 82 82 83 84 83 83 84 83
40 34 32 51 63 62 61 48 66 66 66 67 69 61 66 76 81 80 74 86 85 88 89 89 88 92 91 94 91 88 89 88 88 87 86 83 83 82 84 84 84 86 85 85
37 37 44 59 64 62 41 48 61 60 60 60 57 62 67 71 77 81 74 79 81 81 82 84 86 88 86 88 91 91 91 92 89 87 86 85 84 84 84 84 85 83 84 85
38 35 32 54 55 47 53 56 56 56 57 57 59 62 64 68 77 76 75 75 78 78 79 84 87 86 83 84 88 90 90 89 88 87 89 90 84 84 84 83 82 82 82 84
35 37 48 52 49 52 52 51 53 52 55 55 55 59 57 72 71 70 67 68 71 74 76 84 81 85 83 84 86 89 88 86 87 87 87 87 84 83 84 83 83 83 84 84
35 45 45 46 47 47 49 48 49 50 53 52 53 55 65 65 62 62 63 62 64 67 70 70 72 75 85 86 88 88 86 85 86 86 85 86 88 86 85 84 84 84 84 85
35 39 40 44 44 45 46 48 48 51 53 52 52 60 61 59 58 59 60 61 62 63 63 64 68 71 75 76 84 87 86 86 86 87 84 84 86 86 86 87 84 85 87 87
33 39 37 39 43 44 43 47 49 50 51 53 53 57 59 58 57 58 59 60 59 60 60 60 62 67 71 72 74 87 86 87 87 88 86 85 84 79 52 55 50 53 57 76
40 44 43 43 44 45 45 47 50 50 50 49 52 56 59 57 58 58 60 59 57 57 58 59 59 63 65 68 72 77 85 85 88 84 87 84 84 79 73 60 47 46 46 51
49 45 41 43 40 44 44 45 49 49 50 49 49 52 55 55 56 56 57 58 59 58 57 59 57 59 60 64 67 71 79 70 87 87 86 86 84 82 80 75 75 71 54 53
50 49 45 46 46 45 46 45 44 45 47 48 49 49 52 51 52 53 56 57 58 56 55 56 55 56 59 62 63 70 71 72 76 82 81 84 85 84 83 82 77 72 67 59
56 55 52 48 46 45 45 44 43 44 45 46 46 48 50 50 51 52 52 53 52 52 54 54 54 55 58 60 62 67 69 64 66 73 74 78 80 77 77 75 77 74 71 69
53 50 52 51 51 48 46 45 44 44 44 44 45 46 48 49 48 50 49 51 52 53 54 53 53 55 57 60 61 62 68 68 64 70 72 73 74 73 72 73 72 71 70 69
57 57 55 53 53 52 50 51 47 45 44 45 46 46 46 45 45 46 48 49 50 50 51 52 56 57 58 60 60 63 67 66 67 65 68 69 69 73 73 73 68 66 65 62
58 57 56 56 57 55 54 53 52 50 47 46 45 45 45 45 45 45 47 48 47 46 48 53 56 59 60 61 61 64 68 66 65 63 63 59 62 64 65 66 66 68 68 69
58 57 57 59 59 57 56 55 55 52 51 50 47 45 44 45 46 45 45 44 46 47 50 54 55 57 60 63 61 66 71 69 67 63 59 58 57 56 55 52 56 56 59 58
59 59 59 60 60 58 59 59 57 54 53 53 50 48 46 45 47 46 43 42 46 49 51 52 52 53 58 61 63 62 67 68 63 65 61 57 56 55 54 55 54 55 55 55
60 60 61 60 62 61 59 60 59 58 56 54 53 52 48 46 44 45 45 44 47 49 49 48 49 51 55 56 58 55 59 58 56 54 53 58 55 52 51 51 50 52 51 50
63 62 63 63 62 62 64 59 60 60 57 57 53 52 49 47 45 42 42 46 47 47 47 47 48 48 48 49 49 49 49 48 49 50 48 48 50 49 49 47 46 46 47 47
63 64 62 64 64 63 61 63 62 60 59 57 57 57 55 49 45 48 48 48 47 46 46 46 47 47 46 45 45 45 46 46 46 45 44 44 47 49 48 48 47 46 46 45
64 64 63 63 63 63 63 64 64 59 57 59 54 58 56 54 48 48 50 50 49 50 48 49 49 48 47 46 45 44 44 46 47 48 47 46 46 45 45 46 46 46 46 46
63 64 64 63 64 65 66 65 61 64 61 58 59 58 60 56 55 54 53 51 50 50 52 52 53 53 51 50 48 47 47 46 45 44 44 44 44 45 45 46 47 48 47 47
58 51 65 65 64 65 65 63 61 62 61 58 59 61 59 60 57 55 54 57 54 53 56 57 56 54 55 55 54 54 53 51 48 50 47 44 43 43 43 43 44 44 46 46
MSLP
1008.96 1007.99 1007.19 1005.79 1004.60 1003.38 1002.11 1001.32 1000.12 998.83 997.93 996.72 998.65 998.10 998.10 997.86 997.50 997.17 996.47 996.25 996.31 996.71 997.26 997.18 998.82 999.40 1000.67 1002.01 1003.38 1004.51 1005.75 1006.96 1007.75 1008.63 1009.56 1010.42 1011.09 1011.73 1012.48 1012.95 1013.36 1013.89 1014.43 1014.78
1010.33 1009.49 1008.33 1006.73 1005.65 1004.51 1003.28 1002.03 1001.17 1000.34 999.21 998.32 999.38 1000.06 999.14 999.16 999.20 998.83 998.09 996.88 996.25 996.21 995.92 996.89 997.06 997.81 999.20 1000.65 1002.00 1003.26 1004.45 1005.35 1006.52 1007.89 1008.85 1009.54 1010.31 1010.89 1011.60 1012.09 1012.57 1013.14 1013.59 1014.04
1011.33 1010.82 1009.53 1007.56 1006.21 1005.37 1004.37 1003.57 1003.05 1002.09 1000.79 1000.64 1001.04 1001.45 1000.99 1000.39 1000.62 1000.29 999.99 998.95 996.09 996.02 996.51 997.11 997.02 997.26 998.36 999.37 1000.62 1002.16 1003.41 1004.66 1005.69 1006.77 1007.86 1008.67 1009.34 1010.18 1010.64 1011.23 1011.73 1012.17 1012.69 1013.17
1013.15 1012.18 1010.34 1008.56 1007.46 1006.26 1005.42 1004.63 1004.30 1003.83 1003.09 1002.17 1002.54 1002.70 1002.40 1001.79 1001.74 1001.31 1000.91 1000.15 997.37 996.32 996.21 997.83 998.61 998.71 998.22 999.41 1000.11 1001.05 1002.33 1003.50 1004.69 1005.64 1006.63 1007.73 1008.63 1009.17 1009.83 1010.39 1010.91 1011.29 1011.75 1012.23
1013.93 1012.97 1011.35 1009.35 1007.85 1007.10 1006.47 1005.28 1005.18 1005.45 1005.09 1004.02 1003.71 1003.78 1002.60 1002.28 1002.37 1001.79 1001.41 1000.59 998.79 997.86 997.24 997.39 997.77 997.50 997.61 998.42 999.40 1000.42 1001.46 1002.31 1003.25 1004.32 1005.45 1006.57 1007.43 1008.10 1008.81 1009.58 1010.13 1010.49 1010.84 1011.27
1014.00 1013.21 1011.17 1009.41 1008.39 1008.77 1008.71 1007.19 1007.03 1007.03 1006.70 1006.15 1005.30 1004.82 1002.97 1002.80 1002.05 1001.83 1002.14 1000.85 1000.36 999.41 998.63 997.95 997.78 998.09 998.29 998.21 998.39 999.48 1000.35 1001.01 1002.19 1003.41 1004.43 1005.27 1006.07 1007.00 1007.91 1008.56 1008.89 1009.45 1009.81 1010.19
1014.42 1013.40 1011.49 1010.42 1009.48 1010.01 1010.19 1009.29 1009.03 1009.23 1009.05 1008.75 1008.14 1006.72 1004.51 1004.66 1004.07 1002.59 1003.60 1003.42 1002.06 1001.23 1000.03 999.30 999.03 998.77 998.39 998.49 998.26 998.51 999.53 1000.77 1001.75 1002.56 1003.37 1004.41 1005.58 1006.38 1007.05 1007.76 1008.34 1008.78 1009.09 1009.43
1014.88 1014.05 1012.78 1012.70 1011.75 1011.67 1011.69 1011.13 1011.33 1011.20 1010.84 1010.22 1009.11 1007.46 1005.67 1005.69 1004.09 1003.88 1004.01 1003.82 1002.95 1002.08 1000.77 999.98 999.49 999.38 998.99 998.40 998.53 998.43 999.15 1000.16 1000.80 1001.67 1002.66 1003.52 1004.48 1005.42 1006.20 1006.99 1007.60 1007.97 1008.31 1008.61
1017.73 1015.62 1014.36 1014.38 1014.21 1013.84 1013.73 1012.99 1011.93 1012.16 1011.71 1011.43 1010.18 1007.99 1006.73 1004.45 1004.68 1004.74 1005.21 1005.00 1004.28 1002.85 1001.43 1000.02 999.89 998.82 998.37 998.29 998.21 998.41 998.54 999.29 1000.09 1001.01 1001.87 1002.66 1003.65 1004.71 1005.45 1006.13 1006.71 1007.17 1007.37 1007.67
1018.62 1016.16 1015.75 1015.35 1015.01 1014.71 1014.10 1013.29 1012.74 1012.58 1012.18 1011.60 1009.93 1008.56 1005.68 1005.03 1005.60 1006.04 1005.82 1005.65 1004.45 1003.39 1002.49 1001.61 1000.95 999.88 998.28 997.85 997.90 998.06 998.21 998.71 999.50 1000.35 1001.22 1002.20 1003.04 1003.97 1004.57 1005.08 1005.61 1005.95 1006.37 1006.44
1018.64 1017.77 1017.34 1016.11 1016.10 1015.43 1014.46 1013.63 1013.24 1012.48 1011.45 1010.73 1009.74 1007.05 1006.09 1005.90 1006.01 1006.15 1005.86 1005.38 1004.70 1003.89 1003.44 1002.77 1002.11 1001.11 1000.11 999.19 997.79 997.42 997.77 998.25 998.97 999.77 1000.66 1001.59 1002.39 1003.10 1003.76 1003.84 1004.26 1004.74 1004.96 1005.48
1018.69 1018.24 1018.13 1017.20 1016.50 1015.90 1014.37 1012.55 1012.19 1011.39 1010.74 1010.06 1009.27 1007.37 1006.64 1006.79 1006.88 1006.82 1006.45 1005.81 1005.40 1004.53 1004.16 1003.72 1003.23 1002.08 1000.92 999.98 998.75 996.83 997.22 997.78 998.29 998.96 999.93 1000.91 1001.96 1003.33 1004.36 1003.94 1004.31 1004.09 1004.46 1004.30
1018.64 1018.00 1017.65 1017.39 1016.58 1015.79 1014.29 1012.88 1011.97 1011.23 1010.79 1010.85 1009.11 1006.77 1006.77 1006.92 1007.19 1007.27 1006.74 1006.25 1005.61 1005.47 1005.03 1004.46 1003.99 1002.89 1001.75 1000.59 999.39 998.43 997.39 997.56 997.98 998.45 999.04 999.90 1000.83 1002.07 1003.72 1005.13 1005.33 1005.26 1005.09 1004.78
1017.84 1017.55 1017.31 1017.04 1016.43 1015.80 1014.95 1013.97 1012.68 1011.74 1010.99 1010.03 1009.36 1008.99 1007.68 1007.93 1007.65 1007.63 1007.00 1006.91 1006.11 1006.37 1005.66 1005.01 1004.39 1003.61 1002.57 1001.05 1000.37 999.34 998.17 997.67 997.69 998.07 998.28 999.09 1000.11 1000.96 1002.12 1003.12 1004.23 1005.47 1006.02 1006.23
1017.07 1017.01 1016.99 1016.76 1016.39 1015.96 1015.17 1014.49 1013.53 1012.58 1011.76 1011.15 1010.67 1009.92 1008.87 1008.87 1008.32 1008.49 1007.74 1007.55 1007.29 1006.95 1006.45 1005.80 1005.19 1004.34 1003.06 1002.07 1001.26 999.88 998.81 998.62 998.17 997.61 998.13 998.55 999.70 1000.35 1001.02 1002.23 1003.17 1004.67 1005.80 1006.35
1015.79 1015.83 1015.98 1015.77 1015.91 1015.85 1015.43 1014.93 1014.52 1013.93 1013.30 1012.52 1011.65 1011.29 1010.84 1009.79 1009.20 1009.32 1008.95 1007.20 1008.25 1007.48 1006.95 1006.20 1005.41 1004.57 1003.74 1002.89 1001.50 1000.13 999.52 999.02 998.48 997.91 998.36 998.83 999.40 1000.29 1001.07 1002.11 1002.92 1003.85 1005.31 1006.25
1015.29 1015.49 1015.39 1015.18 1014.99 1015.54 1015.54 1015.39 1014.97 1014.67 1014.31 1013.60 1013.11 1012.69 1011.35 1010.88 1010.02 1010.11 1009.13 1009.28 1008.82 1008.25 1007.25 1006.81 1006.36 1005.22 1004.15 1002.97 1002.09 1000.87 1000.28 999.86 999.88 999.34 999.73 1000.21 1000.01 1000.67 1002.21 1002.27 1003.35 1003.49 1005.27 1006.27
1014.99 1015.13 1015.17 1015.02 1014.67 1014.82 1015.00 1014.85 1015.09 1015.04 1014.62 1014.15 1013.53 1012.68 1012.14 1012.01 1011.94 1011.37 1010.21 1009.64 1009.24 1008.51 1007.62 1007.21 1006.54 1005.22 1004.02 1003.34 1002.59 1001.59 1000.99 1001.09 1001.02 1001.08 1001.40 1001.51 1001.58 1001.86 1002.57 1003.49 1004.86 1003.23 1003.87 1007.37
1014.48 1014.69 1014.97 1014.60 1014.53 1014.41 1014.43 1014.42 1014.56 1014.65 1014.47 1014.26 1013.74 1013.16 1012.63 1012.16 1012.09 1011.82 1011.13 1010.53 1009.45 1009.09 1008.20 1007.49 1006.70 1005.65 1004.62 1003.87 1003.26 1001.97 1001.56 1002.06 1001.99 1002.41 1002.95 1003.19 1003.28 1003.97 1005.06 1005.88 1005.74 1005.06 1006.21 1006.99
1014.11 1014.50 1014.77 1014.16 1013.85 1014.08 1014.13 1014.25 1014.22 1014.43 1014.42 1014.27 1013.76 1013.29 1012.73 1013.00 1012.71 1011.95 1011.52 1011.05 1010.39 1009.84 1008.75 1007.80 1006.74 1005.80 1005.11 1004.09 1003.81 1002.99 1002.38 1002.81 1003.31 1003.67 1004.07 1005.03 1005.39 1005.75 1006.27 1006.57 1006.57 1006.82 1007.05 1008.37
1013.79 1013.86 1013.67 1013.47 1013.19 1013.49 1013.75 1013.74 1013.92 1014.13 1014.06 1013.67 1013.58 1013.85 1013.47 1012.86 1012.46 1012.43 1011.35 1012.02 1011.16 1010.28 1009.35 1008.44 1007.63 1006.87 1005.94 1005.35 1004.69 1004.10 1003.63 1003.76 1004.65 1004.83 1005.15 1006.11 1007.47 1007.44 1007.65 1008.61 1007.59 1008.00 1009.59 1009.42
1013.61 1013.37 1013.26 1013.40 1012.87 1012.71 1013.15 1013.49 1013.49 1013.41 1013.51 1013.56 1013.57 1013.30 1013.84 1014.45 1014.51 1014.16 1013.77 1012.59 1011.35 1010.65 1011.11 1010.13 1009.19 1008.57 1007.33 1006.57 1006.10 1005.75 1005.77 1005.52 1006.01 1006.60 1007.06 1007.26 1008.85 1010.16 1010.05 1010.16 1009.93 1010.12 1010.24 1010.32
1012.93 1013.02 1012.76 1012.59 1012.47 1012.47 1012.09 1012.82 1013.16 1013.11 1013.23 1013.23 1013.76 1014.31 1014.71 1015.07 1014.73 1014.27 1013.89 1013.48 1012.79 1013.21 1011.95 1010.86 1010.46 1009.74 1009.09 1008.47 1008.16 1008.09 1008.09 1007.93 1008.00 1008.51 1009.11 1009.47 1011.20 1012.02 1011.24 1010.97 1012.00 1012.21 1011.57 1011.99
1012.75 1012.56 1012.73 1012.33 1012.30 1012.44 1012.19 1012.13 1012.19 1012.97 1013.41 1013.49 1013.86 1014.13 1014.25 1014.95 1015.44 1015.43 1015.03 1014.55 1014.27 1013.49 1012.56 1011.90 1011.99 1011.21 1010.69 1010.69 1010.50 1010.26 1010.10 1010.01 1010.35 1010.79 1011.15 1011.90 1012.68 1012.47 1011.98 1012.99 1012.39 1012.41 1012.35 1011.74
1012.59 1012.46 1012.82 1012.33 1011.93 1011.65 1011.77 1011.84 1011.84 1012.87 1013.93 1013.62 1014.14 1013.88 1014.39 1015.19 1015.85 1016.10 1015.54 1015.15 1014.44 1013.95 1013.57 1013.39 1013.19 1012.39 1011.90 1012.17 1012.32 1012.49 1012.62 1012.61 1012.65 1012.73 1012.90 1013.43 1013.73 1013.96 1013.86 1013.62 1013.33 1013.28 1013.35 1013.37
1012.47 1012.25 1012.20 1012.41 1012.36 1012.10 1012.00 1012.05 1012.66 1012.42 1013.06 1013.69 1014.04 1014.25 1014.41 1015.22 1015.50 1015.54 1015.38 1015.10 1014.85 1014.61 1014.29 1014.08 1013.91 1013.24 1013.18 1013.35 1013.57 1013.85 1014.01 1014.19 1014.32 1014.57 1014.68 1014.73 1014.69 1014.43 1014.30 1014.78 1014.69 1014.74 1015.13 1015.41
1013.57 1013.35 1012.45 1012.19 1012.55 1012.51 1012.51 1012.89 1012.98 1013.03 1013.39 1014.25 1014.05 1014.21 1014.67 1014.72 1015.11 1015.28 1014.84 1014.65 1014.77 1014.77 1014.55 1014.19 1014.06 1013.54 1013.67 1014.15 1014.21 1014.28 1014.64 1014.92 1014.94 1015.18 1015.66 1015.77 1015.73 1015.87 1016.27 1016.26 1016.57 1016.74 1016.92 1016.99
Wind_Speed
20 22 18 18 18 22 24 23 22 17 23 22 18 17 18 20 20 20 13 11 11 11 30 32 23 21 20 19 21 21 20 22 22 20 19 18 18 17 18 16 14 14 13 13
21 22 21 23 20 20 20 17 21 20 25 24 13 10 17 17 19 23 22 20 7 8 12 20 23 22 22 20 21 20 19 22 20 19 19 18 18 16 17 17 16 15 15 15
19 19 21 24 19 20 19 19 15 18 23 20 18 15 18 18 18 21 25 30 8 7 2 3 12 21 21 22 19 20 17 17 18 18 19 19 17 18 17 18 16 16 16 15
13 15 14 16 19 23 23 23 20 21 24 22 19 18 20 19 19 21 20 28 15 5 8 12 9 11 17 18 18 18 18 17 18 18 20 18 18 18 18 16 17 16 16 16
10 12 17 22 16 18 14 19 18 12 16 24 20 20 24 20 16 19 19 23 13 11 13 12 14 9 9 18 19 17 18 19 19 20 19 20 20 19 17 16 16 16 15 16
12 13 18 21 21 9 10 14 13 16 18 22 23 16 17 20 16 12 17 13 13 12 12 13 13 13 12 12 18 21 20 21 18 19 19 21 20 19 16 16 17 14 16 16
12 15 14 18 18 5 10 14 15 16 17 19 19 19 28 27 26 9 4 20 15 14 11 11 13 15 15 12 15 20 19 16 17 18 19 17 16 15 16 16 15 15 15 14
8 11 15 18 14 9 10 13 13 17 21 21 25 28 31 32 15 10 7 12 13 13 12 13 15 15 17 17 12 12 16 17 15 16 15 14 18 15 15 15 16 14 14 12
4 6 13 16 12 17 16 17 22 18 23 23 25 29 34 13 5 5 6 9 10 12 13 9 14 11 18 18 13 9 14 18 16 15 15 14 15 15 13 14 13 13 12 12
7 4 16 19 20 18 18 19 15 20 21 20 22 32 5 5 5 3 5 7 8 9 9 11 13 16 10 15 14 10 14 16 15 15 15 15 11 13 13 13 13 12 13 12
8 13 13 9 11 15 17 14 19 25 20 15 19 7 8 8 6 6 6 8 8 8 9 12 13 12 13 14 8 12 14 14 15 13 14 14 13 12 12 13 12 13 11 12
5 11 10 10 13 15 22 16 17 11 11 12 15 5 9 9 4 6 7 8 9 11 11 12 12 12 13 14 15 13 14 13 13 12 13 12 12 7 13 9 3 9 7 6
4 11 6 14 12 17 16 16 10 10 7 12 10 8 8 9 5 6 7 8 10 11 10 11 12 13 16 15 15 12 11 12 11 12 13 14 13 11 10 5 9 10 6 11
3 4 5 10 9 13 15 17 15 9 11 13 16 11 10 7 9 9 10 8 10 10 11 11 13 13 15 15 14 9 8 7 11 13 11 14 13 12 11 10 10 7 7 7
2 3 2 6 6 11 11 12 14 16 15 14 13 14 17 12 12 9 12 10 6 8 10 10 11 13 15 16 14 9 7 4 5 8 9 14 13 12 11 10 8 8 3 3
6 9 6 6 5 8 12 12 12 11 12 12 12 14 11 11 14 11 10 16 10 8 9 11 12 15 16 14 14 8 5 7 6 3 8 12 11 7 6 7 9 8 6 4
8 8 11 12 9 5 10 10 11 10 10 11 12 11 12 12 14 11 14 11 11 11 12 12 11 15 14 13 13 7 4 8 4 9 5 3 2 4 5 5 5 6 2 3
6 7 6 7 9 10 7 9 8 8 9 10 10 11 10 10 9 11 9 9 11 12 13 14 13 15 12 13 15 7 5 6 6 7 6 7 8 9 9 7 1 7 10 0
4 4 4 4 6 5 6 9 9 8 5 6 9 10 10 11 11 11 12 12 14 14 15 16 22 15 11 13 15 7 6 7 8 8 8 9 11 10 8 6 5 9 6 5
8 3 8 6 4 5 6 8 8 8 8 7 8 9 11 10 9 11 11 10 12 11 14 15 16 11 11 15 18 9 6 9 9 8 10 9 8 9 9 9 10 8 10 8
6 2 1 4 6 9 6 6 7 8 8 6 8 9 11 14 14 13 14 10 13 16 15 19 14 11 8 10 8 7 7 11 10 5 9 10 8 8 9 5 9 10 7 8
6 4 5 5 6 8 11 4 6 5 8 7 10 12 11 12 9 9 9 11 10 23 12 10 10 18 14 19 12 14 12 13 13 12 12 13 10 6 6 6 8 8 8 9
5 7 7 5 4 6 7 10 4 5 8 9 11 12 11 10 8 9 9 13 11 15 9 11 20 24 24 14 13 13 14 15 14 13 11 12 10 7 8 9 8 7 10 9
5 4 8 9 7 5 5 7 8 9 7 5 14 11 11 10 8 7 8 13 15 16 14 17 19 26 23 12 12 13 13 13 12 11 12 13 8 8 10 9 9 9 9 13
5 5 3 7 7 5 7 9 8 16 10 5 13 12 16 12 8 5 8 9 16 14 11 22 25 25 14 13 13 13 12 12 11 11 11 10 10 9 9 10 10 11 11 11
5 4 3 4 7 7 7 8 8 7 11 8 6 9 10 8 8 6 6 6 7 9 10 10 10 12 12 13 12 12 11 11 11 10 10 9 9 10 10 10 10 10 10 9
3 7 3 2 4 4 6 8 6 9 12 7 5 7 7 8 8 4 5 6 5 6 7 8 8 9 11 11 11 12 12 11 11 11 10 9 9 9 8 8 8 7 7 7
Wind_Direction
282 293 297 288 288 288 233 254 255 254 247 260 55 358 323 320 341 339 304 246 257 224 164 212 175 174 179 187 189 188 189 193 199 200 203 199 203 198 203 206 203 203 207 210
277 283 282 279 260 262 279 260 253 262 272 280 342 2 307 310 331 333 318 307 336 358 190 180 172 173 177 184 186 189 192 193 194 197 196 203 204 202 199 205 203 203 205 210
267 263 270 258 254 260 261 264 274 264 269 288 306 314 301 310 319 321 325 311 276 324 359 22 222 174 177 184 182 186 191 191 193 189 198 202 200 202 203 202 204 205 206 208
267 284 260 257 270 273 248 259 257 264 271 284 289 293 291 296 303 303 315 307 344 289 324 131 183 309 182 183 182 186 191 188 188 190 194 197 202 204 206 203 206 206 207 208
246 249 271 276 267 261 320 262 260 315 309 299 297 303 291 287 278 280 281 286 315 329 330 338 336 334 204 174 183 194 191 197 190 192 190 192 199 203 202 203 206 211 209 208
230 243 248 252 255 26 343 271 279 285 289 291 301 285 280 296 297 280 346 302 323 319 320 319 316 310 299 217 179 193 205 199 191 191 190 194 197 199 202 204 208 208 213 212
246 245 253 262 273 115 233 271 332 335 316 309 299 282 287 297 294 319 168 288 314 311 299 292 291 292 286 276 215 198 201 201 196 190 197 191 194 197 199 206 209 211 217 217
238 245 261 9 316 249 328 315 310 310 305 297 291 290 285 294 262 283 302 295 299 297 292 283 263 239 255 260 255 211 188 198 194 195 192 190 190 195 199 203 209 212 212 217
305 310 319 308 313 310 308 296 292 300 291 293 287 284 288 233 248 301 327 307 309 306 294 300 343 285 221 243 240 234 188 189 198 191 192 194 190 194 197 202 208 211 212 211
324 328 324 314 313 304 284 275 295 292 278 279 283 282 195 122 80 358 338 328 334 327 340 349 347 337 287 225 235 219 198 187 188 188 190 196 190 193 198 197 204 209 214 212
253 280 304 285 315 308 306 289 269 266 254 269 272 237 113 87 42 20 0 359 358 13 7 4 352 343 348 334 263 211 193 183 186 189 186 191 205 194 197 204 207 203 210 212
287 307 285 289 307 319 289 268 255 279 284 265 273 197 110 99 63 19 11 4 14 20 13 358 347 343 354 348 332 200 182 181 183 187 183 186 187 157 33 67 79 122 124 205
306 306 318 318 318 326 339 352 14 352 29 342 322 39 89 97 75 10 19 25 27 8 4 359 344 353 351 349 348 322 188 184 192 193 186 187 183 165 147 67 53 44 47 102
4 336 304 341 335 345 352 346 354 6 20 10 5 345 49 52 42 15 17 3 29 0 357 355 351 349 339 350 339 325 294 219 203 194 194 189 184 175 156 159 148 133 60 31
69 151 242 297 4 5 358 2 359 7 6 7 4 357 22 16 36 19 10 6 22 6 359 344 347 341 348 344 333 333 22 12 299 224 204 182 178 183 174 174 128 121 134 85
37 70 87 52 39 34 24 12 6 10 4 7 8 1 4 24 20 17 353 19 345 10 355 346 347 343 338 329 327 345 8 338 356 42 152 172 154 139 138 139 145 142 156 176
39 21 21 14 43 76 68 34 12 12 20 6 4 351 12 26 18 3 21 0 349 348 6 357 348 332 322 336 345 332 356 55 24 61 55 133 112 101 148 119 130 108 78 264
18 39 30 21 354 57 43 74 72 30 21 8 1 358 14 24 22 6 10 3 357 347 1 343 336 329 335 337 336 336 57 59 46 62 67 61 64 55 63 66 117 120 103 67
121 69 40 25 29 30 59 59 48 62 39 27 18 18 16 20 19 7 2 7 7 349 346 332 338 339 334 325 341 321 73 84 72 61 49 58 66 68 68 75 82 76 101 102
107 106 33 336 72 49 47 87 66 71 64 55 54 23 24 20 10 13 7 2 4 342 336 338 339 336 338 335 348 335 66 77 86 86 65 51 66 80 77 63 66 77 67 64
31 89 4 54 18 133 89 58 68 84 64 29 56 48 49 14 16 17 12 355 353 355 357 358 0 353 340 323 334 335 48 71 45 77 93 96 67 56 53 43 70 76 100 93
292 103 56 349 40 43 127 99 84 60 87 72 69 51 45 47 14 25 11 8 9 14 8 10 14 19 27 38 38 40 43 62 60 49 43 55 74 72 66 41 55 63 65 64
52 8 350 7 34 56 35 141 127 92 59 68 91 90 78 57 22 13 19 19 29 18 21 34 36 41 42 38 40 42 48 50 54 57 60 54 53 44 64 75 62 56 74 58
359 347 19 327 34 10 33 44 116 115 103 44 95 62 62 67 46 32 41 33 29 38 44 45 43 51 53 47 48 48 47 52 56 62 63 55 57 66 72 60 76 77 59 70
329 353 43 322 318 24 50 44 48 120 81 27 112 90 93 86 88 52 51 50 45 50 51 52 51 50 53 54 54 55 56 56 59 64 70 71 71 65 63 69 58 56 54 61
240 271 125 44 1 12 34 37 33 43 112 70 32 102 94 114 118 100 93 91 67 52 51 48 48 62 64 64 64 59 62 61 58 56 58 65 65 63 62 58 58 66 67 68
340 325 299 204 71 75 52 46 15 41 62 52 63 79 105 87 105 82 49 84 110 96 71 71 70 62 66 68 70 75 79 74 71 75 69 59 51 51 50 56 55 57 63 67